Weather Service Report


407 
ASUS41 KPHI 281810
RWRPHI

REGIONAL WEATHER ROUNDUP
NATIONAL WEATHER SERVICE MOUNT HOLLY NJ
200 PM EDT THU AUG 28 2014

NOTE:  "FAIR" INDICATES FEW OR NO CLOUDS BELOW 12,000 FEET WITH NO
SIGNIFICANT WEATHER AND/OR OBSTRUCTIONS TO VISIBILITY.

 * = STATION DOES NOT REPORT PRECIPITATION (E.G. RAIN, SNOW, ETC.) 
        OR FOG.

NJZ015>026-281900-
SOUTHERN NEW JERSEY
  
CITY           SKY/WX    TMP DP  RH WIND       PRES   REMARKS
POMONA         SUNNY     81  58  45 NW15G24   29.91S                  
6HR MIN TEMP:  72; 6HR MAX TEMP:  81;                                

RIO GRANDE*    SUNNY     79  57  47 W10G17    29.93F                  
MILLVILLE      SUNNY     81  57  43 NW12G18   29.93S                  
WRIGHTSTOWN    SUNNY     79  55  44 W14G21    29.90S                  
MOUNT HOLLY    SUNNY     79  53  40 NW13G20   29.93S                  
TRENTON        SUNNY     77  53  43 NW12G20   29.92S                  
6HR MIN TEMP:  69; 6HR MAX TEMP:  79;                                


$$
NJZ001>014-281900-
NORTHERN NEW JERSEY
  
CITY           SKY/WX    TMP DP  RH WIND       PRES   REMARKS
SUSSEX         PTSUNNY   77  54  44 VRB7      29.94S                  
ANDOVER*         N/A     71  52  50 N8        29.95F                  
MORRISTOWN     MOSUNNY   75  54  46 NW9G20    29.93R                  
NEWARK         MOSUNNY   81  53  37 W14G22    29.89F                  
TETERBORO      SUNNY     81  53  37 N12G21    29.88S                  
CALDWELL       MOSUNNY   77  51  40 NW14G22   29.92R                  
SOMERVILLE     MOSUNNY   77  52  41 NW14G21   29.92R                  
ALLAIRE*       SUNNY     81  54  39 NW15      29.90S                  
TOMS RIVER*    SUNNY     79  54  41 N10       29.91S                  

$$
PAZ043-044-047-054-055-060>062-066>071-281900-
EASTERN PENNSYLVANIA
  
CITY           SKY/WX    TMP DP  RH WIND       PRES   REMARKS
PHILADELPHIA   MOSUNNY   80  55  42 NW17      29.94S                  
6HR MIN TEMP:  72; 6HR MAX TEMP:  80;                                

NORTH PHILA    SUNNY     81  51  35 N16G23    29.94F                  
BLUE BELL      SUNNY     77  55  47 N8G16     29.94F                  
DOYLESTOWN     MOSUNNY   78  53  41 N14G21    29.95R                  
QUAKERTOWN*    SUNNY     73  54  49 MISG      29.97S                  
POTTSTOWN      PTSUNNY   76  55  48 N14       29.98S                  
LANCASTER      MOSUNNY   77  54  44 N12       29.98F                  
COATESVILLE    MOSUNNY   75  59  57 NW15      29.99S                  
READING        MOSUNNY   77  53  43 N15G25    29.97F                  
6HR MIN TEMP:  67; 6HR MAX TEMP:  77;                                

ALLENTOWN      SUNNY     76  51  41 N14G21    29.97S                  
6HR MIN TEMP:  66; 6HR MAX TEMP:  76;                                

MOUNT POCONO   PTSUNNY   67  49  52 NW12G18   30.00F                  
6HR MIN TEMP:  58; 6HR MAX TEMP:  68;                                

HAZLETON       CLOUDY    68  50  52 NW9       30.04S                  
WILKES BARRE   PTSUNNY   73  51  46 W13G22    29.99F                  

$$
DEZALL-MDZ008-012-015-019-020-281900-
DELAWARE AND EASTERN MARYLAND
  
CITY           SKY/WX    TMP DP  RH WIND       PRES   REMARKS
WILMINGTON     SUNNY     80  58  46 NW17      29.96S                  
6HR MIN TEMP:  71; 6HR MAX TEMP:  81;                                

DOVER          SUNNY     81  61  51 W18       29.92F                  
GEORGETOWN     SUNNY     83  59  44 VRB7      29.94S                  
6HR MIN TEMP:  73; 6HR MAX TEMP:  84;                                

EASTON         SUNNY     84  63  48 N9G18     29.99F                  
PATUXENT       MOSUNNY   83  66  56 NE10      29.95S                  
OCEAN CITY     SUNNY     86  58  38 W8        29.92F                  
WALLOPS ISLAND SUNNY     86  63  45 N9        29.94S                  
CAMBRIDGE      SUNNY     81  61  50 N9        29.95S                  
SALISBURY      SUNNY     87  59  38 NW12G17   29.94S                  

$$
PAZ001-021-NYZ056-072-MDZ011-DCZ001-281900-
OTHER NEARBY LOCATIONS
  
CITY           SKY/WX    TMP DP  RH WIND       PRES   REMARKS
HARRISBURG     PTSUNNY   78  55  44 NW14G22   29.98F                  
STATE COLLEGE  MOSUNNY   70  50  49 NW12      30.06F                  
WILLIAMSPORT   MOSUNNY   75  49  39 NW9G20    30.00F                  
BINGHAMTON     PTSUNNY   66  52  60 NW14      30.02F                  
NEW YORK CITY  MOSUNNY   80  52  37 VRB3G18   29.91S                  
BALTIMORE      MOSUNNY   83  60  45 NW14      29.96S                  
WASHINGTON DC  MOSUNNY   85  57  38 NW13G22   29.98S                  

$$

Return to Home page


Western Regional Climate Center, wrcc@dri.edu